디시인사이드 갤러리

리듬게임 갤러리

갤러리 이슈박스, 최근방문 갤러리

갤러리 본문 영역

에혀 시그문드dpa 역보더앱에서 작성

Deneb갤로그로 이동합니다. 2019.09.21 17:36:48
조회 28 추천 0 댓글 2

2피미러 황배로도 흘리는거보면 안건드리는게답인듯

- dc official App

추천 비추천

0

고정닉 0

0

댓글 영역

전체 리플 0
등록순정렬 기준선택

하단 갤러리 리스트 영역

왼쪽 컨텐츠 영역

갤러리 리스트 영역

갤러리 리스트
번호 제목 글쓴이 작성일 조회 추천
설문 ‘조커’ 역에 딱 맞을 것 같은 한국 스타는? 운영자 19.10.22 - -
공지 리듬게임에 관련된 사진과 내용을 올려주시기 바랍니다. [739] 운영자 06.08.29 10669581 201
10912319 아 집에 삼알 L900케이스옴 뉴욕대공황갤로그로 이동합니다. 18:42 7 0
10912318 길고양이 허겁지겁 음식물쓰레기 먹고잇냉 [1] LetsOTL갤로그로 이동합니다. 18:41 12 0
10912317 셤끝나보림 3_DEC갤로그로 이동합니다. 18:39 11 0
10912316 주안특. ˚○。 갤로그로 이동합니다. 18:38 15 0
10912315 비즈니스호텔. [1] LASH*갤로그로 이동합니다. 18:38 17 0
10912314 금방끝나니 바로 하세욧!! ㅇㅇ(94.46) 18:37 10 0
10912313 투덱 첫 맥스요 [4] Jun갤로그로 이동합니다. 18:36 50 8
10912312 따오콘 말 나온김에 집에서 쓰는 따오 리얼더블 올려봄 [4] kinetic갤로그로 이동합니다. 18:33 47 0
10912311 예전에메이플하면서받은 200레벨상자 결국못쓰고없어짐 ㅋㅋ MAID.V갤로그로 이동합니다. 18:33 23 0
10912310 요시타카는 플라워 ˙∇˙ 갤로그로 이동합니다. 18:32 19 0
10912309 류걲은 아직도 건재한데 코스케는 머하누 [2] LetsOTL갤로그로 이동합니다. 18:32 36 0
10912308 dp7렙 입문함 [4] maimai갤로그로 이동합니다. 18:32 27 0
10912307 류가놈 그것도 ㄱㅊ았는데 [2] Presto갤로그로 이동합니다. 18:31 34 0
10912306 미쿠 누들스토퍼 산거 보실분 [5] 에트바갤로그로 이동합니다. 18:31 32 0
10912305 Ryu☆ 에게 허용되는 BPM은 150 이하. [4] ECHOES갤로그로 이동합니다. 18:30 62 0
10912304 놀러오실 분... 주전자껍데기갤로그로 이동합니다. 18:30 11 0
10912303 투덱 판정변태들을 위한 손쉬운 99 계산법 VM 갤로그로 이동합니다. 18:30 34 1
10912302 나 유튜브에 암것도 안올리는데 3명이나 구독함 [3] 갓재삼 갤로그로 이동합니다. 18:30 25 0
10912301 톰아저씨어디감 [2] ˙∇˙ 갤로그로 이동합니다. 18:30 26 0
10912300 유튜브 조회수제일높은게 dp차분만든거 [1] JHS⭐ 갤로그로 이동합니다. 18:29 19 0
10912299 멜트다운 뭐임이거 [4] 샤이니컬러즈갤로그로 이동합니다. 18:29 23 0
10912298 류걲은아주잘쓰지 [2] MAID.S갤로그로 이동합니다. 18:29 40 0
10912297 또다른 선빵필승 바나리11갤로그로 이동합니다. 18:28 16 0
10912296 넣어줘 정배충갤로그로 이동합니다. 18:28 21 0
10912295 영상 잘 안 올라오는 비주류 게임으로 코인 타는 것도 괜찮음 ㄴㅅㅇㄴㅅㅇ 갤로그로 이동합니다. 18:27 18 0
10912294 그립습니다...IIDX TOM [1] Vmaria(220.74) 18:27 65 0
10912293 옛날에 류걲보고 양산형뽕짝리믹스라 놀렷는데 [2] 성덕(221.184) 18:27 38 0
10912292 난 옛날에 리플렉 자작채보 짠게 제일 높은뎅 [2] LetsOTL갤로그로 이동합니다. 18:26 25 0
10912291 재미있는거보실분 [4] MAID.S갤로그로 이동합니다. 18:25 37 0
10912290 드럼 7배속걸고하는영상 올리면 비추테러당할듯 ㅋㅋ [1] 도부갤로그로 이동합니다. 18:24 32 0
10912289 드럼7배속쓰면초견이씹창나서버렷음 MAID.S갤로그로 이동합니다. 18:23 20 0
10912288 유튜브조회수1위는 블리츠크리그EX원핸클 Bamtrollface갤로그로 이동합니다. 18:23 22 0
10912287 리듬접으니까유도부에올릴게없어 [1] 노모갤로그로 이동합니다. 18:23 26 0
10912286 오늘 전역식사 디케이드갤로그로 이동합니다. 18:23 9 0
10912285 피자먹을지말지 너희들의 짤에대한 반응보고 결정함 [4] 손덕후(202.214) 18:22 49 0
10912284 저정도에 100달러 + 면 해볼만하내 ㄱㅅ요 [3] 갤러리갤로그로 이동합니다. 18:22 50 0
10912283 옛날에 베라터미네이션 선빵필승 지렸었는데 [4] 바나리11갤로그로 이동합니다. 18:21 45 0
10912282 역대가날먹이래... 마루타갤로그로 이동합니다. 18:21 27 0
10912281 생각해보니걍제가리겜을너무많이하는거일듯요 [1] 함수 갤로그로 이동합니다. 18:21 30 0
10912280 이계정은 200만원 더이상협상없습니다 [1] MAID.V갤로그로 이동합니다. 18:21 37 0
10912279 기타도라는 ㅅㅂ 영상올리는애들 이상한놈들밖에없음 ㅋㅋㅋ [6] 도부갤로그로 이동합니다. 18:20 50 0
10912278 팝픈은 화면에 랜덤 껐냐고 큰창 띄워줘야한다 [1] ㅋㅌㅅ.갤로그로 이동합니다. 18:20 28 0
10912277 컨트랙트dpa 같이 계단연습할거머없나 [10] DEN2갤로그로 이동합니다. 18:20 36 0
10912276 나는할줄아는게없어서유튜브로돈못범 Atmosphere 갤로그로 이동합니다. 18:20 15 0
10912275 유타포가 컨셉 잘잡고 유츄버 한듯 [3] 성덕(221.184) 18:18 57 0
10912274 리겜영상은 선빵필승이 맞는것갓음. [2] 뉴욕대공황갤로그로 이동합니다. 18:18 50 0
10912273 내 유튜브 조회수 1위 ㅋㅋㅋ [4] 갤러리갤로그로 이동합니다. 18:18 66 0
10912272 날먹하기 쉬운데 돈 잘벌만한게 뭐가있을까 [5] 유학파샤이닝 갤로그로 이동합니다. 18:18 35 0
10912271 래디컬 페니스 익하. [3] ˚○。 갤로그로 이동합니다. 18:17 27 0
갤러리 내부 검색
전체게시물 정렬 옵션

오른쪽 컨텐츠 영역

개념글 []

/

    이슈줌NEW

    1/6

    뉴스NEW

    1/3

    힛(HIT)NEW

    그때 그 힛

    1/3

    초개념